Weather History for Suffolk, VA

Change the Weather History Date:

Tuesday, October 18, 2011

  Actual Average Record
Temperature  
Mean Temperature 73 °F -  
Max Temperature 84 °F 70 °F 86 °F (2007)
Min Temperature 62 °F 48 °F 31 °F (1977)
Cooling Degree Days 8    
Growing Degree Days 23 (Base 50)    
Moisture  
Dew Point 62 °F    
Average Humidity 74    
Maximum Humidity 94    
Minimum Humidity 45    
Precipitation  
Precipitation 0.00 in - - ()
Sea Level Pressure  
Sea Level Pressure 29.84 in    
Wind  
Wind Speed 5 mph (SSW)    
Max Wind Speed 13 mph    
Max Gust Speed 18 mph    
Visibility 10 miles    
Events      
Averages and records for this station are not official NWS values.
T = Trace of Precipitation, MM = Missing Value Source: NWS Daily Summary

Daily Weather History Graph

Daily Weather History Graph

Search for Another Location

Airport:

Trip Planner

Search our weather history database for the weather conditions in past years. The results will help you decide how hot, cold, wet, or windy it might be!

Date:

Astronomy

Oct. 18, 2011 Rise Set
Actual Time 7:16 AM EDT 6:26 PM EDT
Civil Twilight 6:50 AM EDT 6:52 PM EDT
Nautical Twilight 6:20 AM EDT 7:22 PM EDT
Astronomical Twilight 5:50 AM EDT 7:52 PM EDT
Moon 11:10 PM EDT 1:00 PM EDT
Length of Visible Light 12h 02m
Length of Day
11h 10m
Waning Gibbous, 65% of the Moon is Illuminated
Oct 18
Waning Gibbous
Oct 19
Last Quarter
Oct 26
New
Nov 2
First Quarter
Nov 10
Full

Hourly Weather History & Observations

Time (EDT) Temp. Heat Index Dew Point Humidity Pressure Visibility Wind Dir Wind Speed Gust Speed Precip Events Conditions
12:15 AM 64.4 °F - 57.2 °F 77% 29.85 in 10.0 mi South 4.6 mph - N/A   Clear
12:35 AM 64.4 °F - 57.2 °F 77% 29.85 in 10.0 mi South 5.8 mph - N/A   Clear
12:55 AM 64.4 °F - 57.2 °F 77% 29.85 in 10.0 mi SSW 5.8 mph - N/A   Clear
1:15 AM 64.4 °F - 59.0 °F 83% 29.84 in 10.0 mi SSW 4.6 mph - N/A   Clear
1:35 AM 64.4 °F - 59.0 °F 83% 29.84 in 10.0 mi SSW 4.6 mph - N/A   Clear
1:55 AM 64.4 °F - 59.0 °F 83% 29.84 in 10.0 mi SSW 3.5 mph - N/A   Clear
2:15 AM 64.4 °F - 60.8 °F 88% 29.84 in 10.0 mi SSW 3.5 mph - N/A   Clear
2:35 AM 62.6 °F - 60.8 °F 94% 29.84 in 10.0 mi South 4.6 mph - N/A   Clear
2:55 AM 62.6 °F - 60.8 °F 94% 29.83 in 10.0 mi SSW 3.5 mph - N/A   Clear
3:15 AM 62.6 °F - 60.8 °F 94% 29.83 in 10.0 mi SSW 4.6 mph - N/A   Clear
3:35 AM 62.6 °F - 60.8 °F 94% 29.84 in 10.0 mi South 4.6 mph - N/A   Clear
3:55 AM 62.6 °F - 60.8 °F 94% 29.84 in 10.0 mi South 3.5 mph - N/A   Clear
4:15 AM 62.6 °F - 60.8 °F 94% 29.84 in 10.0 mi SSW 3.5 mph - N/A   Clear
4:35 AM 62.6 °F - 60.8 °F 94% 29.84 in 10.0 mi SSW 5.8 mph - N/A   Clear
4:55 AM 64.4 °F - 60.8 °F 88% 29.85 in 10.0 mi SSW 4.6 mph - N/A   Clear
5:15 AM 62.6 °F - 60.8 °F 94% 29.85 in 10.0 mi Calm Calm - N/A   Clear
5:35 AM 62.6 °F - 60.8 °F 94% 29.85 in 10.0 mi SSW 3.5 mph - N/A   Clear
5:55 AM 62.6 °F - 60.8 °F 94% 29.85 in 10.0 mi SSW 3.5 mph - N/A   Clear
6:15 AM 62.6 °F - 60.8 °F 94% 29.85 in 10.0 mi Calm Calm - N/A   Clear
6:35 AM 62.6 °F - 60.8 °F 94% 29.86 in 10.0 mi SSW 3.5 mph - N/A   Clear
6:55 AM 62.6 °F - 60.8 °F 94% 29.86 in 10.0 mi Calm Calm - N/A   Clear
7:15 AM 62.6 °F - 59.0 °F 88% 29.86 in 10.0 mi South 3.5 mph - N/A   Clear
7:35 AM 62.6 °F - 59.0 °F 88% 29.86 in 10.0 mi South 3.5 mph - N/A   Clear
7:55 AM 62.6 °F - 60.8 °F 94% 29.87 in 10.0 mi Calm Calm - N/A   Clear
8:15 AM 62.6 °F - 60.8 °F 94% 29.88 in 10.0 mi South 4.6 mph - N/A   Clear
8:35 AM 64.4 °F - 62.6 °F 94% 29.88 in 10.0 mi South 5.8 mph - N/A   Clear
8:55 AM 66.2 °F - 62.6 °F 88% 29.89 in 10.0 mi SSW 6.9 mph - N/A   Clear
9:15 AM 68.0 °F - 62.6 °F 83% 29.89 in 10.0 mi SSW 6.9 mph - N/A   Clear
9:35 AM 69.8 °F - 62.6 °F 78% 29.89 in 10.0 mi SSW 6.9 mph - N/A   Clear
9:55 AM 71.6 °F - 62.6 °F 73% 29.89 in 10.0 mi SSW 6.9 mph - N/A   Clear
10:15 AM 73.4 °F - 62.6 °F 69% 29.88 in 10.0 mi SSW 8.1 mph - N/A   Clear
10:35 AM 75.2 °F - 62.6 °F 65% 29.88 in 10.0 mi SW 5.8 mph - N/A   Clear
10:55 AM 75.2 °F - 64.4 °F 69% 29.88 in 10.0 mi SSW 6.9 mph - N/A   Clear
11:15 AM 78.8 °F - 62.6 °F 57% 29.87 in 10.0 mi SSW 8.1 mph - N/A   Clear
11:35 AM 80.6 °F 82.3 °F 64.4 °F 58% 29.87 in 10.0 mi SSW 9.2 mph - N/A   Clear
11:55 AM 80.6 °F 81.8 °F 62.6 °F 54% 29.86 in 10.0 mi SSW 10.4 mph - N/A   Clear
12:15 PM 80.6 °F 81.8 °F 62.6 °F 54% 29.85 in 10.0 mi SSW 8.1 mph - N/A   Clear
12:35 PM 82.4 °F 83.4 °F 62.6 °F 51% 29.85 in 10.0 mi SSW 9.2 mph - N/A   Clear
12:55 PM 82.4 °F 83.4 °F 62.6 °F 51% 29.84 in 10.0 mi SSW 12.7 mph - N/A   Clear
1:35 PM 84.2 °F 85.0 °F 62.6 °F 48% 29.82 in 10.0 mi South 11.5 mph 18.4 mph N/A   Clear
1:55 PM 84.2 °F 85.0 °F 62.6 °F 48% 29.81 in 10.0 mi SSW 10.4 mph - N/A   Clear
2:15 PM 84.2 °F 85.0 °F 62.6 °F 48% 29.80 in 10.0 mi SSW 8.1 mph - N/A   Clear
2:55 PM 84.2 °F 85.0 °F 62.6 °F 48% 29.80 in 10.0 mi South 9.2 mph - N/A   Clear
3:15 PM 84.2 °F 85.0 °F 62.6 °F 48% 29.80 in 10.0 mi South 10.4 mph 17.3 mph N/A   Clear
3:35 PM 84.2 °F 84.4 °F 60.8 °F 45% 29.79 in 10.0 mi South 9.2 mph - N/A   Clear
3:55 PM 84.2 °F 85.0 °F 62.6 °F 48% 29.79 in 10.0 mi South 8.1 mph - N/A   Clear
4:15 PM 84.2 °F 85.0 °F 62.6 °F 48% 29.79 in 10.0 mi South 11.5 mph - N/A   Clear
4:35 PM 82.4 °F 83.4 °F 62.6 °F 51% 29.78 in 10.0 mi South 8.1 mph - N/A   Clear
4:55 PM 82.4 °F 83.4 °F 62.6 °F 51% 29.79 in 10.0 mi South 5.8 mph - N/A   Clear
5:15 PM 82.4 °F 83.9 °F 64.4 °F 54% 29.79 in 10.0 mi South 8.1 mph - N/A   Clear
5:35 PM 80.6 °F 82.3 °F 64.4 °F 58% 29.79 in 10.0 mi SSE 6.9 mph - N/A   Clear
5:55 PM 78.8 °F - 64.4 °F 61% 29.79 in 10.0 mi SSE 3.5 mph - N/A   Clear
6:15 PM 75.2 °F - 64.4 °F 69% 29.80 in 10.0 mi South 3.5 mph - N/A   Clear
6:35 PM 73.4 °F - 64.4 °F 73% 29.80 in 10.0 mi Calm Calm - N/A   Clear
6:55 PM 71.6 °F - 64.4 °F 78% 29.80 in 10.0 mi Calm Calm - N/A   Clear
7:15 PM 71.6 °F - 64.4 °F 78% 29.81 in 10.0 mi Calm Calm - N/A   Clear
7:35 PM 73.4 °F - 64.4 °F 73% 29.81 in 10.0 mi SSE 4.6 mph - N/A   Clear
8:15 PM 73.4 °F - 66.2 °F 78% 29.80 in 10.0 mi SSE 4.6 mph - N/A   Clear
8:35 PM 73.4 °F - 66.2 °F 78% 29.80 in 10.0 mi SE 5.8 mph - N/A   Clear
8:55 PM 73.4 °F - 66.2 °F 78% 29.80 in 10.0 mi SE 5.8 mph - N/A   Clear
9:15 PM 73.4 °F - 66.2 °F 78% 29.80 in 10.0 mi SSE 5.8 mph - N/A   Clear
9:35 PM 73.4 °F - 68.0 °F 83% 29.81 in 10.0 mi South 4.6 mph - N/A   Clear
9:55 PM 71.6 °F - 68.0 °F 88% 29.80 in 10.0 mi SSE 3.5 mph - N/A   Scattered Clouds
10:15 PM 71.6 °F - 68.0 °F 88% 29.81 in 10.0 mi SSE 4.6 mph - N/A Rain Rain
10:35 PM 71.6 °F - 68.0 °F 88% 29.79 in 10.0 mi Calm Calm - N/A Rain Light Rain
10:55 PM 69.8 °F - 68.0 °F 94% 29.78 in 10.0 mi Calm Calm - 0.01 in Rain Light Rain
11:15 PM 69.8 °F - 68.0 °F 94% 29.77 in 10.0 mi Calm Calm - 0.01 in Rain Light Rain
11:35 PM 69.8 °F - 68.0 °F 94% 29.76 in 10.0 mi Calm Calm - 0.01 in   Light Drizzle
11:55 PM 69.8 °F - 68.0 °F 94% 29.74 in 10.0 mi ENE 3.5 mph - 0.01 in   Clear